Regional Weather Roundup
Issued by NWS Cleveland, OH

Home | Current Version | Previous Version | Graphics & Text | Print | Product List | Glossary On
Versions: 1 2 3 4 5 6 7 8 9 10 11 12 13 14 15 16 17 18 19 20 21 22 23 24 25 26 27 28 29 30 31 32 33 34 35 36 37 38 39 40 41 42 43 44 45 46 47 48 49 50
000
ASUS41 KCLE 241510
RWRCLE
OHIO REGIONAL WEATHER ROUNDUP
NATIONAL WEATHER SERVICE WILMINGTON, OH
1100 AM EDT FRI MAR 24 2017

NOTE: "FAIR" INDICATES FEW OR NO CLOUDS BELOW 12,000 FEET WITH NO
SIGNIFICANT WEATHER AND/OR OBSTRUCTIONS TO VISIBILITY.

OHZ001>008-015>018-024>027-034-035-043-044-241600-
   NORTHWEST OHIO

CITY           SKY/WX    TMP DP  RH WIND       PRES   REMARKS
DEFIANCE       FAIR      58  46  64 SW20G33   30.05S
FINDLAY        FAIR      61  47  59 SW26      30.08S
TOLEDO EXPRESS FAIR      59  46  62 SW17G33   30.03S
TOLEDO EXEC    FAIR      61  49  64 SW22G33   30.05S
LIMA           FAIR      59  47  64 SW22G36   30.11F
$$

OHZ009>014-019>023-028>033-038-089-241600-
   NORTHEAST OHIO

CITY           SKY/WX    TMP DP  RH WIND       PRES   REMARKS
CLE-HOPKINS    CLOUDY    60  42  51 SW17G25   30.10F
CLE-LAKEFRONT  PTSUNNY   60  42  51 S29G39    30.05S
CUY CO. ARPT   PTSUNNY   64  46  52 SW21G35   30.06F
LORAIN-ELYRIA  FAIR      60  46  59 SW23G37   30.08F
ASHTABULA      FAIR      57  42  57 S16G24    30.08F
AKRON-CANTON   PTSUNNY   58  42  55 SW20G30   30.14F
WOOSTER        FAIR      58  44  60 SW20G30   30.13F
MANSFIELD      FAIR      59  46  62 SW22G35   30.13F
YOUNGSTOWN     CLOUDY    56  39  53 SW18G30   30.13F
$$

OHZ042-051>053-060>062-070>072-077>081-241600-
  SOUTHWEST OHIO

CITY           SKY/WX    TMP DP  RH WIND       PRES   REMARKS
CINC-COVINGTON PTSUNNY   63  48  58 SW20G29   30.21R
CINC-LUNKEN    FAIR      61  48  62 S9        30.23R
HAMILTON       FAIR      63  48  58 SW9G21    30.23R
DAYTON         PTSUNNY   57  44  62 S24G31    30.18S
WRIGHT-PAT AFB PTSUNNY   58  45  62 S22       30.19S
DAYTON GENERAL LGT RAIN  57  45  64 SW12      30.21R
WILMINGTON     FAIR      58  46  64 SW17G26   30.22R
$$

OHZ036-037-039>041-045>050-054>059-063>069-073>076-082>088-241600-
  CENTRAL AND SOUTHEAST OHIO

CITY           SKY/WX    TMP DP  RH WIND       PRES   REMARKS
COLUMBUS       PTSUNNY   62  44  51 SW17G28   30.21S
OSU AIRPORT    FAIR      62  46  55 SW15G29   30.20S
BOLTON FIELD   SUNNY     61  46  59 SW21G28   30.21S
RICKENBACK AFB FAIR      60  45  57 SW24G33   30.22R
NEWARK         FAIR      62  45  53 SW21G29   30.20F
MARION         FAIR      60  45  57 SW22G32   30.15F
LANCASTER      FAIR      64  45  49 SW13      30.23S
ZANESVILLE     FAIR      62  40  44 SW12G22   30.21F
NEW PHILLY     PTSUNNY   59  40  49 SW13G26   30.19F
$$




USA.gov is the U.S. government's official web portal to all federal, state and local government web resources and services.